Location: Aleksandria
(48.6657°N, 33.1137°E)
Time: 00:44:34
(UTC+03:00)

Starlink (trailer) - Visible Passes

Search period start: 19 July 2019 00:00
Search period end: 29 July 2019 00:00
Orbit: 548 x 551 km, 53.0° (Epoch: 18 July)

Date Brightness Start Highest point End Pass type
(mag) Time Alt. Az. Time Alt. Az. Time Alt. Az.
19 Jul 4.6 02:19:56 30° SSE 02:20:28 31° SE 02:24:10 10° ENE visible
19 Jul 3.8 03:55:42 10° WSW 03:59:50 73° NNW 04:04:00 10° ENE visible
20 Jul 4.2 02:14:27 38° SSE 02:14:59 39° SE 02:18:53 10° ENE visible
20 Jul 4.0 03:50:21 10° W 03:54:28 64° NNW 03:58:36 10° ENE visible
21 Jul 3.8 02:08:56 46° S 02:09:31 50° SE 02:13:32 10° ENE visible
21 Jul 4.2 03:45:02 10° W 03:49:07 56° NNW 03:53:13 10° ENE visible
22 Jul 3.6 02:03:21 52° SSW 02:04:03 63° SSE 02:08:11 10° ENE visible
22 Jul 4.4 03:39:43 10° W 03:43:46 51° NNW 03:47:51 10° ENE visible
23 Jul 6.0 00:22:06 11° E 00:22:06 11° E 00:22:27 10° E visible
23 Jul 3.5 01:57:44 53° SW 01:58:38 78° SSE 02:02:48 10° ENE visible
23 Jul 4.5 03:34:25 10° W 03:38:27 48° N 03:42:28 10° ENE visible
24 Jul 5.8 00:16:27 14° E 00:16:27 14° E 00:17:21 10° E visible
24 Jul 3.5 01:52:03 46° WSW 01:53:13 88° NNW 01:57:24 10° ENE visible
24 Jul 4.6 03:29:06 10° W 03:33:07 46° N 03:37:08 10° ENE visible
25 Jul 5.5 00:10:41 19° E 00:10:41 19° E 00:12:08 10° ENE visible
25 Jul 3.7 01:46:18 37° W 01:47:50 75° NNW 01:51:59 10° ENE visible
25 Jul 4.7 03:23:47 10° WNW 03:27:47 45° N 03:31:47 10° ENE visible
26 Jul 5.1 00:04:51 24° E 00:04:51 24° E 00:06:51 10° ENE visible
26 Jul 3.9 01:40:27 29° W 01:42:27 65° NNW 01:46:35 10° ENE visible
26 Jul 4.7 03:18:27 10° WNW 03:22:28 45° N 03:26:27 10° ENE visible
26 Jul 4.5 23:58:50 34° E 23:58:50 34° E 00:01:30 10° ENE visible
27 Jul 4.2 01:34:26 21° W 01:37:05 57° NNW 01:41:11 10° ENE visible
27 Jul 4.7 03:13:06 10° WNW 03:17:07 46° N 03:21:08 10° E visible
27 Jul 3.7 23:52:33 55° ESE 23:52:33 55° ESE 23:56:08 10° ENE visible
28 Jul 4.4 01:28:07 13° W 01:31:44 52° NNW 01:35:48 10° ENE visible
28 Jul 4.6 03:07:44 10° WNW 03:11:47 49° N 03:15:49 10° E visible
28 Jul 5.8 22:09:58 11° E 22:09:58 11° E 22:10:20 10° E visible
28 Jul 3.4 23:45:26 46° SW 23:46:35 75° SSE 23:50:45 10° ENE visible
